����,���ϕ���(m/s),���ϕ���,�ő�u�ԕ���(m/s),�ő啗��������,�C��(��),���x(%),10���Ԉړ��ώZ�J��(mm),1���Ԉړ��ώZ�J��(mm),���J��(mm),�݌v�J��(mm)
2022-08-08T00:00:00+09:00,1.3,��쐼,2.9,�쐼,27.4,85.6,0,0,0.5,0.5
2022-08-08T00:01:00+09:00,1.2,��쐼,3,��쐼,27.4,85.3,0,0,0,0.5
2022-08-08T00:02:00+09:00,1.1,��쐼,3,��쐼,27.4,85.2,0,0,0,0.5
2022-08-08T00:03:00+09:00,1,��쐼,3,��쐼,27.7,85.7,0,0,0,0.5
2022-08-08T00:04:00+09:00,1,��쐼,3,��쐼,27.6,84.5,0,0,0,0.5
2022-08-08T00:05:00+09:00,0.9,�쐼,3,��쐼,27.6,84,0,0,0,0.5
2022-08-08T00:06:00+09:00,1.1,�쐼,4.7,�쐼,27.6,83.9,0,0,0,0.5
2022-08-08T00:07:00+09:00,1.4,�쐼,5.7,�쐼,27.6,83.9,0,0,0,0.5
2022-08-08T00:08:00+09:00,1.7,�쐼,5.7,�쐼,27.6,83.7,0,0,0,0.5
2022-08-08T00:09:00+09:00,1.9,�쐼,5.7,�쐼,27.6,83.7,0,0,0,0.5
2022-08-08T00:10:00+09:00,1.8,�쐼,5.7,�쐼,27.6,83.7,0,0,0,0.5
2022-08-08T00:11:00+09:00,1.7,�쐼,5.7,�쐼,27.6,83.6,0,0,0,0.5
2022-08-08T00:12:00+09:00,1.7,�쐼,5.7,�쐼,27.6,83.6,0,0,0,0.5
2022-08-08T00:13:00+09:00,1.7,�쐼,5.7,�쐼,27.6,83.7,0,0,0,0.5
2022-08-08T00:14:00+09:00,1.8,��쐼,5.7,�쐼,27.6,83.6,0,0,0,0.5
2022-08-08T00:15:00+09:00,1.8,��쐼,5.7,�쐼,27.6,83.7,0,0,0,0.5
2022-08-08T00:16:00+09:00,1.8,��쐼,5.7,�쐼,27.5,83.8,0,0,0,0.5
2022-08-08T00:17:00+09:00,1.4,��쐼,5.1,��,27.5,83.9,0,0,0,0.5
2022-08-08T00:18:00+09:00,1.2,��쐼,4,��쐼,27.4,84.1,0,0,0,0.5
2022-08-08T00:19:00+09:00,1.1,��쐼,2.7,�쐼,27.5,84.4,0,0,0,0.5
2022-08-08T00:20:00+09:00,1.1,��쐼,2.7,�쐼,27.5,84.4,0,0,0,0.5
2022-08-08T00:21:00+09:00,1.2,��쐼,3.8,��쐼,27.5,84.4,0,0,0,0.5
2022-08-08T00:22:00+09:00,1.5,��쐼,4.8,��,27.5,84.2,0,0,0,0.5
2022-08-08T00:23:00+09:00,1.5,��쐼,5.1,��쓌,27.5,84.2,0,0,0,0.5
2022-08-08T00:24:00+09:00,1.6,��쐼,5.1,��쓌,27.5,84.1,0,0,0,0.5
2022-08-08T00:25:00+09:00,1.7,��쐼,5.1,��쓌,27.5,84.1,0,0,0,0.5
2022-08-08T00:26:00+09:00,1.8,��쐼,5.1,��쓌,27.6,84.1,0,0,0,0.5
2022-08-08T00:27:00+09:00,1.9,��쐼,5.1,��쓌,27.6,84,0,0,0,0.5
2022-08-08T00:28:00+09:00,2.1,��쐼,5.1,��쓌,27.6,83.9,0,0,0,0.5
2022-08-08T00:29:00+09:00,2.2,��,5.1,��쓌,27.6,83.8,0,0,0,0.5
2022-08-08T00:30:00+09:00,2.2,��쐼,5.1,��쓌,27.5,83.5,0,0,0,0.5
2022-08-08T00:31:00+09:00,2.2,��쐼,5.1,��쓌,27.6,83.7,0,0,0,0.5
2022-08-08T00:32:00+09:00,2.1,��쐼,5.1,��쓌,27.5,83.8,0,0,0,0.5
2022-08-08T00:33:00+09:00,2.1,��쐼,5.1,��,27.5,83.9,0,0,0,0.5
2022-08-08T00:34:00+09:00,2.3,��쐼,5.1,��,27.5,84.2,0,0,0,0.5
2022-08-08T00:35:00+09:00,2.2,�쐼,5.1,��,27.5,84.2,0,0,0,0.5
2022-08-08T00:36:00+09:00,2.1,�쐼,5.1,��,27.5,84.2,0,0,0,0.5
2022-08-08T00:37:00+09:00,2.1,�쐼,5.1,��,27.5,84.6,0,0,0,0.5
2022-08-08T00:38:00+09:00,2.1,���쐼,4.5,��,27.5,84.9,0,0,0,0.5
2022-08-08T00:39:00+09:00,2.2,���쐼,4.5,��,27.5,84.9,0,0,0,0.5
2022-08-08T00:40:00+09:00,2.3,���쐼,4.5,��,27.5,84.9,0,0,0,0.5
2022-08-08T00:41:00+09:00,2.4,���쐼,4.5,��,27.5,84.8,0,0,0,0.5
2022-08-08T00:42:00+09:00,2.4,�쐼,4.5,��,27.4,84.6,0,0,0,0.5
2022-08-08T00:43:00+09:00,2.5,�쐼,4.5,��,27.4,84.8,0,0,0,0.5
2022-08-08T00:44:00+09:00,2.4,�쐼,4.2,���쐼,27.4,85,0,0,0,0.5
2022-08-08T00:45:00+09:00,2.5,�쐼,4.2,���쐼,27.5,85,0,0,0,0.5
2022-08-08T00:46:00+09:00,2.5,�쐼,4.2,���쐼,27.5,84.9,0,0,0,0.5
2022-08-08T00:47:00+09:00,2.5,�쐼,4.2,���쐼,27.5,84.8,0,0,0,0.5
2022-08-08T00:48:00+09:00,2.4,�쐼,3.9,���쐼,27.5,84.7,0,0,0,0.5
2022-08-08T00:49:00+09:00,2.2,��쐼,3.8,��,27.5,84.6,0,0,0,0.5
2022-08-08T00:50:00+09:00,2,��쐼,3.8,��,27.5,84.6,0,0,0,0.5
2022-08-08T00:51:00+09:00,2,��쐼,3.8,��,27.5,84.8,0,0,0,0.5
2022-08-08T00:52:00+09:00,1.8,��쐼,3.8,��,27.5,85,0,0,0,0.5
2022-08-08T00:53:00+09:00,1.7,�쐼,3.8,��,27.5,84.8,0,0,0,0.5
2022-08-08T00:54:00+09:00,1.9,�쐼,6.2,�쐼,27.6,84.8,0,0,0,0.5
2022-08-08T00:55:00+09:00,2.2,�쐼,7,�쐼,27.6,85,0,0,0,0.5
2022-08-08T00:56:00+09:00,2.4,�쐼,7,�쐼,27.6,85,0,0,0,0.5
2022-08-08T00:57:00+09:00,2.5,�쐼,7,�쐼,27.6,84.9,0,0,0,0.5
2022-08-08T00:58:00+09:00,2.7,�쐼,7,�쐼,27.6,84.7,0,0,0,0.5
2022-08-08T00:59:00+09:00,2.9,�쐼,7,�쐼,27.6,84.8,0,0,0,0.5
2022-08-08T01:00:00+09:00,3,�쐼,7,�쐼,27.5,84.8,0,0,0,0.5
2022-08-08T01:01:00+09:00,3.1,�쐼,7,�쐼,27.5,84.8,0,0,0,0.5
2022-08-08T01:02:00+09:00,3.3,�쐼,7,�쐼,27.5,84.9,0,0,0,0.5
2022-08-08T01:03:00+09:00,3.5,�쐼,7,�쐼,27.5,85,0,0,0,0.5
2022-08-08T01:04:00+09:00,3.4,���쐼,7,�쐼,27.5,85.1,0,0,0,0.5
2022-08-08T01:05:00+09:00,3.2,���쐼,6.5,��,27.5,85.2,0,0,0,0.5
2022-08-08T01:06:00+09:00,3.1,���쐼,5.4,���쐼,27.5,85.3,0,0,0,0.5
2022-08-08T01:07:00+09:00,3,�쐼,5.4,���쐼,27.5,85.2,0,0,0,0.5
2022-08-08T01:08:00+09:00,3.1,�쐼,5.7,�쐼,27.5,85.3,0,0,0,0.5
2022-08-08T01:09:00+09:00,3.2,�쐼,5.7,�쐼,27.5,85.4,0,0,0,0.5
2022-08-08T01:10:00+09:00,3.2,�쐼,5.7,�쐼,27.5,85.4,0,0,0,0.5
2022-08-08T01:11:00+09:00,3.3,�쐼,5.7,�쐼,27.5,85.4,0,0,0,0.5
2022-08-08T01:12:00+09:00,3.3,�쐼,5.7,�쐼,27.5,85.4,0,0,0,0.5
2022-08-08T01:13:00+09:00,3.3,�쐼,5.7,�쐼,27.5,85.6,0,0,0,0.5
2022-08-08T01:14:00+09:00,3.3,�쐼,5.7,�쐼,27.5,85.7,0,0,0,0.5
2022-08-08T01:15:00+09:00,3.4,�쐼,5.7,�쐼,27.4,85.8,0,0,0,0.5
2022-08-08T01:16:00+09:00,3.6,�쐼,7.1,���쐼,27.4,85.8,0,0,0,0.5
2022-08-08T01:17:00+09:00,3.7,�쐼,7.1,���쐼,27.5,85.9,0,0,0,0.5
2022-08-08T01:18:00+09:00,3.6,�쐼,7.1,���쐼,27.5,85.8,0,0,0,0.5
2022-08-08T01:19:00+09:00,3.4,�쐼,7.1,���쐼,27.4,85.8,0,0,0,0.5
2022-08-08T01:20:00+09:00,3.4,�쐼,7.1,���쐼,27.5,86.1,0,0,0,0.5
2022-08-08T01:21:00+09:00,3.3,�쐼,7.1,���쐼,27.6,85.8,0,0,0,0.5
2022-08-08T01:22:00+09:00,3.3,�쐼,7.1,���쐼,27.5,85.4,0,0,0,0.5
2022-08-08T01:23:00+09:00,3.1,�쐼,7.1,���쐼,27.5,85.3,0,0,0,0.5
2022-08-08T01:24:00+09:00,2.9,��쐼,7.1,���쐼,27.5,85.4,0,0,0,0.5
2022-08-08T01:25:00+09:00,2.6,��쐼,7.1,���쐼,27.5,85.5,0,0,0,0.5
2022-08-08T01:26:00+09:00,2.1,��쐼,5.3,�쐼,27.4,85.5,0,0,0,0.5
2022-08-08T01:27:00+09:00,1.9,��쐼,4.8,�쐼,27.4,85.6,0,0,0,0.5
2022-08-08T01:28:00+09:00,1.9,��쐼,4.4,��,27.4,85.8,0,0,0,0.5
2022-08-08T01:29:00+09:00,2,��쐼,5.6,��쓌,27.5,86,0,0,0,0.5
2022-08-08T01:30:00+09:00,1.9,��쐼,5.6,��쓌,27.5,85.7,0,0,0,0.5
2022-08-08T01:31:00+09:00,1.9,��쐼,5.6,��쓌,27.4,85.7,0,0,0,0.5
2022-08-08T01:32:00+09:00,2,��쐼,5.6,��쓌,27.4,85.7,0,0,0,0.5
2022-08-08T01:33:00+09:00,1.9,��쐼,5.6,��쓌,27.5,85.8,0,0,0,0.5
2022-08-08T01:34:00+09:00,1.9,��쐼,5.6,��쓌,27.5,85.8,0,0,0,0.5
2022-08-08T01:35:00+09:00,1.8,��쐼,5.6,��쓌,27.5,85.6,0,0,0,0.5
2022-08-08T01:36:00+09:00,1.9,��쐼,5.6,��쓌,27.4,85.6,0,0,0,0.5
2022-08-08T01:37:00+09:00,1.8,��쐼,5.6,��쓌,27.6,86,0,0,0,0.5
2022-08-08T01:38:00+09:00,1.6,��쐼,5.6,��쓌,27.6,85.7,0,0,0,0.5
2022-08-08T01:39:00+09:00,1.4,��쐼,5.1,��,27.5,85.3,0,0,0,0.5
2022-08-08T01:40:00+09:00,1.3,��쐼,5.1,��,27.5,85.3,0,0,0,0.5
2022-08-08T01:41:00+09:00,1.3,��쐼,5.1,��,27.4,85.3,0,0,0,0.5
2022-08-08T01:42:00+09:00,1.1,��쐼,2.8,��쐼,27.4,85.5,0,0,0,0.5
2022-08-08T01:43:00+09:00,1.3,��쐼,3.8,�쐼,27.4,85.6,0,0,0,0.5
2022-08-08T01:44:00+09:00,1.4,�쐼,3.8,�쐼,27.5,85.7,0,0,0,0.5
2022-08-08T01:45:00+09:00,1.5,�쐼,3.8,�쐼,27.5,85.6,0,0,0,0.5
2022-08-08T01:46:00+09:00,1.6,�쐼,3.8,�쐼,27.5,85.5,0,0,0,0.5
2022-08-08T01:47:00+09:00,1.6,��쐼,3.8,�쐼,27.5,85.5,0,0,0,0.5
2022-08-08T01:48:00+09:00,1.6,��쐼,3.8,�쐼,27.4,85.6,0,0,0,0.5
2022-08-08T01:49:00+09:00,1.6,��쐼,3.8,�쐼,27.4,85.6,0,0,0,0.5
2022-08-08T01:50:00+09:00,1.6,��,3.8,�쐼,27.4,85.5,0,0,0,0.5
2022-08-08T01:51:00+09:00,1.5,��,3.8,�쐼,27.4,85.5,0,0,0,0.5
2022-08-08T01:52:00+09:00,1.5,��,3.8,�쐼,27.5,85.7,0,0,0,0.5
2022-08-08T01:53:00+09:00,1.4,��,3.6,��,27.4,85.5,0,0,0,0.5
2022-08-08T01:54:00+09:00,1.3,��,3.6,��,27.4,85.3,0,0,0,0.5
2022-08-08T01:55:00+09:00,1.3,��,3.6,��,27.3,85.4,0,0,0,0.5
2022-08-08T01:56:00+09:00,1.3,��,3.6,��,27.3,85.8,0,0,0,0.5
2022-08-08T01:57:00+09:00,1.5,��쐼,4.3,��쐼,27.4,85.8,0,0,0,0.5
2022-08-08T01:58:00+09:00,1.7,��쐼,4.3,��쐼,27.5,85.7,0,0,0,0.5
2022-08-08T01:59:00+09:00,1.8,�쐼,4.3,��쐼,27.5,85.5,0,0,0,0.5
2022-08-08T02:00:00+09:00,1.9,�쐼,4.3,��쐼,27.6,85.2,0,0,0,0.5
2022-08-08T02:01:00+09:00,2,�쐼,4.3,��쐼,27.6,85,0,0,0,0.5
2022-08-08T02:02:00+09:00,2.1,�쐼,4.3,��쐼,27.6,84.8,0,0,0,0.5
2022-08-08T02:03:00+09:00,2.1,���쐼,4.3,��쐼,27.6,84.7,0,0,0,0.5
2022-08-08T02:04:00+09:00,2.2,�쐼,4.3,��쐼,27.6,84.6,0,0,0,0.5
2022-08-08T02:05:00+09:00,2.3,�쐼,4.3,��쐼,27.6,84.6,0,0,0,0.5
2022-08-08T02:06:00+09:00,2.3,�쐼,4.3,��쐼,27.6,84.6,0,0,0,0.5
2022-08-08T02:07:00+09:00,2.2,�쐼,3.9,�쐼,27.6,84.6,0,0,0,0.5
2022-08-08T02:08:00+09:00,2.1,�쐼,3.9,�쐼,27.6,84.5,0,0,0,0.5
2022-08-08T02:09:00+09:00,2.1,�쐼,3.9,�쐼,27.6,84.5,0,0,0,0.5
2022-08-08T02:10:00+09:00,2.1,�쐼,3.9,�쐼,27.6,84.4,0,0,0,0.5
2022-08-08T02:11:00+09:00,2.1,�쐼,3.9,�쐼,27.6,84.7,0,0,0,0.5
2022-08-08T02:12:00+09:00,2,�쐼,3.7,��쐼,27.6,84.8,0,0,0,0.5
2022-08-08T02:13:00+09:00,2,�쐼,3.7,��쐼,27.6,85,0,0,0,0.5
2022-08-08T02:14:00+09:00,2.1,�쐼,4.4,���쐼,27.6,85.2,0,0,0,0.5
2022-08-08T02:15:00+09:00,2.2,�쐼,4.6,���쐼,27.5,85,0,0,0,0.5
2022-08-08T02:16:00+09:00,2.3,�쐼,5.4,��,27.6,85.1,0,0,0,0.5
2022-08-08T02:17:00+09:00,2.5,���쐼,5.5,���쐼,27.6,85.1,0,0,0,0.5
2022-08-08T02:18:00+09:00,2.6,���쐼,5.5,���쐼,27.6,85.1,0,0,0,0.5
2022-08-08T02:19:00+09:00,2.7,���쐼,5.5,���쐼,27.6,85.3,0,0,0,0.5
2022-08-08T02:20:00+09:00,2.6,���쐼,5.5,���쐼,27.6,85.1,0,0,0,0.5
2022-08-08T02:21:00+09:00,2.5,���쐼,5.5,���쐼,27.7,84.9,0,0,0,0.5
2022-08-08T02:22:00+09:00,2.4,���쐼,5.5,���쐼,27.7,84.8,0,0,0,0.5
2022-08-08T02:23:00+09:00,2.4,���쐼,5.5,���쐼,27.7,84.7,0,0,0,0.5
2022-08-08T02:24:00+09:00,2.4,���쐼,5.5,���쐼,27.7,84.8,0,0,0,0.5
2022-08-08T02:25:00+09:00,2.4,���쐼,5.5,���쐼,27.6,84.9,0,0,0,0.5
2022-08-08T02:26:00+09:00,2.4,���쐼,5.5,���쐼,27.6,84.8,0,0,0,0.5
2022-08-08T02:27:00+09:00,2.2,���쐼,4.3,���쐼,27.6,84.8,0,0,0,0.5
2022-08-08T02:28:00+09:00,2.1,���쐼,4.1,���쐼,27.6,84.9,0,0,0,0.5
2022-08-08T02:29:00+09:00,1.9,���쐼,4.1,���쐼,27.6,84.8,0,0,0,0.5
2022-08-08T02:30:00+09:00,2,���쐼,4.1,���쐼,27.6,84.7,0,0,0,0.5
2022-08-08T02:31:00+09:00,2.1,���쐼,4.1,���쐼,27.6,84.7,0,0,0,0.5
2022-08-08T02:32:00+09:00,2.2,���쐼,4.1,���쐼,27.6,84.7,0,0,0,0.5
2022-08-08T02:33:00+09:00,2.2,�쐼,4.1,���쐼,27.6,84.7,0,0,0,0.5
2022-08-08T02:34:00+09:00,2.1,�쐼,4.1,���쐼,27.6,84.8,0,0,0,0.5
2022-08-08T02:35:00+09:00,2,�쐼,4.1,���쐼,27.6,84.9,0,0,0,0.5
2022-08-08T02:36:00+09:00,1.8,�쐼,4,���쐼,27.5,85,0,0,0,0.5
2022-08-08T02:37:00+09:00,1.7,�쐼,4,���쐼,27.5,85.2,0,0,0,0.5
2022-08-08T02:38:00+09:00,1.6,�쐼,2.9,�쐼,27.6,85.3,0,0,0,0.5
2022-08-08T02:39:00+09:00,1.6,�쐼,2.9,�쐼,27.6,84.9,0,0,0,0.5
2022-08-08T02:40:00+09:00,1.5,�쐼,2.9,�쐼,27.6,84.8,0,0,0,0.5
2022-08-08T02:41:00+09:00,1.4,�쐼,2.9,�쐼,27.7,84.6,0,0,0,0.5
2022-08-08T02:42:00+09:00,1.4,�쐼,2.9,�쐼,27.7,84.3,0,0,0,0.5
2022-08-08T02:43:00+09:00,1.5,�쐼,4.2,�쐼,27.6,84.2,0,0,0,0.5
2022-08-08T02:44:00+09:00,1.5,�쐼,5,��쐼,27.6,84.3,0,0,0,0.5
2022-08-08T02:45:00+09:00,1.7,�쐼,5.1,��쐼,27.6,84.3,0,0,0,0.5
2022-08-08T02:46:00+09:00,1.9,�쐼,5.1,��쐼,27.6,84.3,0,0,0,0.5
2022-08-08T02:47:00+09:00,2.1,�쐼,5.1,��쐼,27.6,84.3,0,0,0,0.5
2022-08-08T02:48:00+09:00,2.3,�쐼,5.1,��쐼,27.6,84.3,0,0,0,0.5
2022-08-08T02:49:00+09:00,2.4,�쐼,5.1,��쐼,27.6,84.4,0,0,0,0.5
2022-08-08T02:50:00+09:00,2.5,�쐼,5.1,��쐼,27.6,84.4,0,0,0,0.5
2022-08-08T02:51:00+09:00,2.6,�쐼,5.1,��쐼,27.6,84.3,0,0,0,0.5
2022-08-08T02:52:00+09:00,2.6,�쐼,5.1,��쐼,27.6,84.4,0,0,0,0.5
2022-08-08T02:53:00+09:00,2.4,�쐼,5.1,��쐼,27.6,84.7,0,0,0,0.5
2022-08-08T02:54:00+09:00,2.2,�쐼,5.1,��쐼,27.6,84.7,0,0,0,0.5
2022-08-08T02:55:00+09:00,2.1,�쐼,4.7,��쐼,27.6,84.5,0,0,0,0.5
2022-08-08T02:56:00+09:00,2.1,�쐼,4.3,��,27.6,84.5,0,0,0,0.5
2022-08-08T02:57:00+09:00,2.1,�쐼,4.3,��,27.6,84.5,0,0,0,0.5
2022-08-08T02:58:00+09:00,1.9,�쐼,4.3,��,27.6,84.6,0,0,0,0.5
2022-08-08T02:59:00+09:00,1.9,�쐼,4.3,��,27.6,84.8,0,0,0,0.5
2022-08-08T03:00:00+09:00,1.9,�쐼,4.3,��,27.6,84.7,0,0,0,0.5
2022-08-08T03:01:00+09:00,2,�쐼,4.5,�쐼,27.6,84.4,0,0,0,0.5
2022-08-08T03:02:00+09:00,2.1,�쐼,4.5,�쐼,27.5,84.6,0,0,0,0.5
2022-08-08T03:03:00+09:00,2.2,�쐼,4.5,�쐼,27.5,84.7,0,0,0,0.5
2022-08-08T03:04:00+09:00,2.3,�쐼,4.5,�쐼,27.5,84.8,0,0,0,0.5
2022-08-08T03:05:00+09:00,2.2,�쐼,4.5,�쐼,27.6,84.8,0,0,0,0.5
2022-08-08T03:06:00+09:00,2.1,�쐼,4.5,�쐼,27.6,84.8,0,0,0,0.5
2022-08-08T03:07:00+09:00,2,�쐼,4.5,�쐼,27.5,84.8,0,0,0,0.5
2022-08-08T03:08:00+09:00,2,�쐼,4.5,�쐼,27.5,85,0,0,0,0.5
2022-08-08T03:09:00+09:00,2.1,�쐼,4.5,�쐼,27.5,85.1,0,0,0,0.5
2022-08-08T03:10:00+09:00,2.2,���쐼,4.5,�쐼,27.5,85.1,0,0,0,0.5
2022-08-08T03:11:00+09:00,2.2,���쐼,4.1,��,27.5,85.1,0,0,0,0.5
2022-08-08T03:12:00+09:00,2.1,���쐼,4.1,��,27.5,85.2,0,0,0,0.5
2022-08-08T03:13:00+09:00,2.2,���쐼,4.1,��,27.5,85.2,0,0,0,0.5
2022-08-08T03:14:00+09:00,2.3,���쐼,4.1,��,27.5,85.2,0,0,0,0.5
2022-08-08T03:15:00+09:00,2.3,���쐼,4.1,��,27.5,85.2,0,0,0,0.5
2022-08-08T03:16:00+09:00,2.4,���쐼,4.1,��,27.5,85.3,0,0,0,0.5
2022-08-08T03:17:00+09:00,2.5,���쐼,4.1,��,27.5,85.2,0,0,0,0.5
2022-08-08T03:18:00+09:00,2.6,���쐼,4.1,��,27.5,85.2,0,0,0,0.5
2022-08-08T03:19:00+09:00,2.5,���쐼,3.9,���쐼,27.5,85.2,0,0,0,0.5
2022-08-08T03:20:00+09:00,2.5,���쐼,3.9,���쐼,27.5,85.4,0,0,0,0.5
2022-08-08T03:21:00+09:00,2.5,���쐼,3.9,���쐼,27.5,85.4,0,0,0,0.5
2022-08-08T03:22:00+09:00,2.5,���쐼,4,���쐼,27.5,85.4,0,0,0,0.5
2022-08-08T03:23:00+09:00,2.6,���쐼,4.6,���쐼,27.5,85.4,0,0,0,0.5
2022-08-08T03:24:00+09:00,2.6,���쐼,4.6,���쐼,27.5,85.4,0,0,0,0.5
2022-08-08T03:25:00+09:00,2.5,�쐼,4.6,���쐼,27.7,85.8,0,0,0,0.5
2022-08-08T03:26:00+09:00,2.4,�쐼,4.6,���쐼,27.6,85.1,0,0,0,0.5
2022-08-08T03:27:00+09:00,2.3,�쐼,4.6,���쐼,27.6,85,0,0,0,0.5
2022-08-08T03:28:00+09:00,2.3,�쐼,4.6,���쐼,27.6,84.9,0,0,0,0.5
2022-08-08T03:29:00+09:00,2.2,�쐼,4.6,���쐼,27.5,85,0,0,0,0.5
2022-08-08T03:30:00+09:00,2.1,�쐼,4.6,���쐼,27.6,85,0,0,0,0.5
2022-08-08T03:31:00+09:00,2,�쐼,4.6,���쐼,27.5,85,0,0,0,0.5
2022-08-08T03:32:00+09:00,1.9,�쐼,4.6,���쐼,27.5,85,0,0,0,0.5
2022-08-08T03:33:00+09:00,1.8,�쐼,3.3,�쐼,27.6,85.2,0,0,0,0.5
2022-08-08T03:34:00+09:00,1.8,�쐼,3.3,�쐼,27.6,85.1,0,0,0,0.5
2022-08-08T03:35:00+09:00,1.9,�쐼,3.3,�쐼,27.5,85,0,0,0,0.5
2022-08-08T03:36:00+09:00,1.9,�쐼,4.2,���쐼,27.5,85.1,0,0,0,0.5
2022-08-08T03:37:00+09:00,2.1,�쐼,4.7,���쐼,27.5,85.1,0,0,0,0.5
2022-08-08T03:38:00+09:00,2.2,���쐼,4.7,���쐼,27.5,85.2,0,0,0,0.5
2022-08-08T03:39:00+09:00,2.2,���쐼,4.7,���쐼,27.6,85.3,0,0,0,0.5
2022-08-08T03:40:00+09:00,2.2,���쐼,4.7,���쐼,27.6,85.5,0,0,0,0.5
2022-08-08T03:41:00+09:00,2.2,���쐼,4.7,���쐼,27.6,85.5,0,0,0,0.5
2022-08-08T03:42:00+09:00,2.2,���쐼,4.7,���쐼,27.8,85.8,0,0,0,0.5
2022-08-08T03:43:00+09:00,2.3,���쐼,4.7,���쐼,27.7,85.1,0,0,0,0.5
2022-08-08T03:44:00+09:00,2.4,���쐼,4.7,���쐼,27.6,84.8,0,0,0,0.5
2022-08-08T03:45:00+09:00,2.4,���쐼,4.7,���쐼,27.6,84.8,0,0,0,0.5
2022-08-08T03:46:00+09:00,2.5,���쐼,4.7,���쐼,27.6,85.1,0,0,0,0.5
2022-08-08T03:47:00+09:00,2.4,���쐼,4.7,���쐼,27.5,85.2,0,0,0,0.5
2022-08-08T03:48:00+09:00,2.5,���쐼,4.7,���쐼,27.5,85.2,0,0,0,0.5
2022-08-08T03:49:00+09:00,2.7,�쐼,4.7,���쐼,27.5,85.3,0,0,0,0.5
2022-08-08T03:50:00+09:00,2.8,�쐼,4.7,���쐼,27.5,85.4,0,0,0,0.5
2022-08-08T03:51:00+09:00,3,�쐼,4.7,���쐼,27.5,85.5,0,0,0,0.5
2022-08-08T03:52:00+09:00,3.2,�쐼,4.7,���쐼,27.5,85.4,0,0,0,0.5
2022-08-08T03:53:00+09:00,3.2,���쐼,4.7,���쐼,27.5,85.4,0,0,0,0.5
2022-08-08T03:54:00+09:00,3.2,�쐼,4.7,���쐼,27.5,85.4,0,0,0,0.5
2022-08-08T03:55:00+09:00,3.2,�쐼,4.7,���쐼,27.5,85.5,0,0,0,0.5
2022-08-08T03:56:00+09:00,3.1,�쐼,4.6,�쐼,27.5,85.6,0,0,0,0.5
2022-08-08T03:57:00+09:00,3,�쐼,5.5,��,27.5,85.7,0,0,0,0.5
2022-08-08T03:58:00+09:00,3,�쐼,5.8,��,27.5,85.7,0,0,0,0.5
2022-08-08T03:59:00+09:00,2.9,�쐼,5.8,��,27.5,85.6,0,0,0,0.5
2022-08-08T04:00:00+09:00,2.8,�쐼,5.8,��,27.5,85.3,0,0,0,0.5
2022-08-08T04:01:00+09:00,2.6,�쐼,5.8,��,27.5,85.3,0,0,0,0.5
2022-08-08T04:02:00+09:00,2.5,�쐼,5.8,��,27.5,85.4,0,0,0,0.5
2022-08-08T04:03:00+09:00,2.5,�쐼,5.8,��,27.5,85.3,0,0,0,0.5
2022-08-08T04:04:00+09:00,2.3,�쐼,5.8,��,27.6,85.3,0,0,0,0.5
2022-08-08T04:05:00+09:00,2.4,�쐼,5.8,��,27.6,85.2,0,0,0,0.5
2022-08-08T04:06:00+09:00,2.5,�쐼,5.8,��,27.5,85.1,0,0,0,0.5
2022-08-08T04:07:00+09:00,2.7,�쐼,6.5,��,27.5,85.1,0,0,0,0.5
2022-08-08T04:08:00+09:00,2.6,�쐼,6.5,��,27.5,85.1,0,0,0,0.5
2022-08-08T04:09:00+09:00,2.8,�쐼,6.5,��,27.5,85.1,0,0,0,0.5
2022-08-08T04:10:00+09:00,2.9,�쐼,6.5,��,27.5,85.2,0,0,0,0.5
2022-08-08T04:11:00+09:00,3,�쐼,6.5,��,27.5,85.2,0,0,0,0.5
2022-08-08T04:12:00+09:00,2.9,���쐼,6.5,��,27.5,85.2,0,0,0,0.5
2022-08-08T04:13:00+09:00,3,���쐼,6.5,��,27.5,85.2,0,0,0,0.5
2022-08-08T04:14:00+09:00,3,���쐼,6.5,��,27.5,85.2,0,0,0,0.5
2022-08-08T04:15:00+09:00,2.9,���쐼,6.5,��,27.5,85.3,0,0,0,0.5
2022-08-08T04:16:00+09:00,2.9,���쐼,6.5,��,27.6,85.5,0,0,0,0.5
2022-08-08T04:17:00+09:00,2.7,���쐼,4.6,�쐼,27.5,85.2,0,0,0,0.5
2022-08-08T04:18:00+09:00,2.6,���쐼,4.3,���쐼,27.5,85.3,0,0,0,0.5
2022-08-08T04:19:00+09:00,2.6,���쐼,4.3,���쐼,27.6,85.2,0,0,0,0.5
2022-08-08T04:20:00+09:00,2.5,���쐼,4.3,���쐼,27.6,85.4,0,0,0,0.5
2022-08-08T04:21:00+09:00,2.5,���쐼,4.3,���쐼,27.6,85.7,0,0,0,0.5
2022-08-08T04:22:00+09:00,2.5,���쐼,4.3,���쐼,27.7,85.8,0,0,0,0.5
2022-08-08T04:23:00+09:00,2.7,���쐼,6.1,���쐼,27.6,85.2,0,0,0,0.5
2022-08-08T04:24:00+09:00,2.8,���쐼,6.1,���쐼,27.6,85.1,0,0,0,0.5
2022-08-08T04:25:00+09:00,2.9,���쐼,6.1,���쐼,27.6,85.1,0,0,0,0.5
2022-08-08T04:26:00+09:00,2.9,���쐼,6.1,���쐼,27.6,85.3,0,0,0,0.5
2022-08-08T04:27:00+09:00,2.9,���쐼,6.1,���쐼,27.6,85.5,0,0,0,0.5
2022-08-08T04:28:00+09:00,2.9,���쐼,6.1,���쐼,27.6,85.3,0,0,0,0.5
2022-08-08T04:29:00+09:00,2.8,���쐼,6.1,���쐼,27.6,85.1,0,0,0,0.5
2022-08-08T04:30:00+09:00,2.8,���쐼,6.1,���쐼,27.6,85.1,0,0,0,0.5
2022-08-08T04:31:00+09:00,2.9,���쐼,6.1,���쐼,27.6,85,0,0,0,0.5
2022-08-08T04:32:00+09:00,2.9,���쐼,6.1,���쐼,27.5,85.1,0,0,0,0.5
2022-08-08T04:33:00+09:00,2.7,���쐼,5.4,���쐼,27.6,85.5,0,0,0,0.5
2022-08-08T04:34:00+09:00,2.6,���쐼,4.5,���쐼,27.6,85.4,0,0,0,0.5
2022-08-08T04:35:00+09:00,2.7,���쐼,5.8,���쐼,27.6,85.1,0,0,0,0.5
2022-08-08T04:36:00+09:00,2.8,���쐼,5.8,���쐼,27.6,85.3,0,0,0,0.5
2022-08-08T04:37:00+09:00,2.8,���쐼,5.8,���쐼,27.6,85.3,0,0,0,0.5
2022-08-08T04:38:00+09:00,2.8,���쐼,5.8,���쐼,27.6,85.5,0,0,0,0.5
2022-08-08T04:39:00+09:00,2.8,���쐼,5.8,���쐼,27.6,85.6,0,0,0,0.5
2022-08-08T04:40:00+09:00,2.8,���쐼,5.8,���쐼,27.6,85.3,0,0,0,0.5
2022-08-08T04:41:00+09:00,2.8,���쐼,5.8,���쐼,27.6,85.3,0,0,0,0.5
2022-08-08T04:42:00+09:00,2.9,���쐼,5.8,���쐼,27.6,85.3,0,0,0,0.5
2022-08-08T04:43:00+09:00,2.9,���쐼,5.8,���쐼,27.5,85.2,0,0,0,0.5
2022-08-08T04:44:00+09:00,2.9,���쐼,5.8,���쐼,27.5,85.1,0,0,0,0.5
2022-08-08T04:45:00+09:00,2.8,���쐼,5,�쐼,27.5,85.1,0,0,0,0.5
2022-08-08T04:46:00+09:00,2.9,���쐼,6.7,���쐼,27.5,85.1,0,0,0,0.5
2022-08-08T04:47:00+09:00,3,���쐼,6.7,���쐼,27.6,85,0,0,0,0.5
2022-08-08T04:48:00+09:00,3,���쐼,6.7,���쐼,27.6,85,0,0,0,0.5
2022-08-08T04:49:00+09:00,3.1,���쐼,6.7,���쐼,27.6,84.8,0,0,0,0.5
2022-08-08T04:50:00+09:00,3.2,�쐼,6.7,���쐼,27.6,84.7,0,0,0,0.5
2022-08-08T04:51:00+09:00,3,�쐼,6.7,���쐼,27.6,84.7,0,0,0,0.5
2022-08-08T04:52:00+09:00,2.8,�쐼,6.7,���쐼,27.7,84.5,0,0,0,0.5
2022-08-08T04:53:00+09:00,2.8,�쐼,6.7,���쐼,27.6,84.2,0,0,0,0.5
2022-08-08T04:54:00+09:00,2.8,�쐼,6.7,���쐼,27.6,84.1,0,0,0,0.5
2022-08-08T04:55:00+09:00,2.8,�쐼,6.7,���쐼,27.6,84.2,0,0,0,0.5
2022-08-08T04:56:00+09:00,2.5,��쐼,5.9,�쐼,27.5,84.3,0,0,0,0.5
2022-08-08T04:57:00+09:00,2.4,��쐼,5.2,��쐼,27.5,84.4,0,0,0,0.5
2022-08-08T04:58:00+09:00,2.2,��쐼,5.2,��쐼,27.5,84.5,0,0,0,0.5
2022-08-08T04:59:00+09:00,2,��쐼,5.2,��쐼,27.6,84.7,0,0,0,0.5
2022-08-08T05:00:00+09:00,1.8,�쐼,5.2,��쐼,27.6,84.5,0,0,0,0.5
2022-08-08T05:01:00+09:00,1.7,�쐼,5.2,��쐼,27.6,84.4,0,0,0,0.5
2022-08-08T05:02:00+09:00,1.7,�쐼,5.2,��쐼,27.6,84.5,0,0,0,0.5
2022-08-08T05:03:00+09:00,1.5,�쐼,3.9,�쐼,27.6,84.5,0,0,0,0.5
2022-08-08T05:04:00+09:00,1.3,��쐼,3,�쐼,27.6,84.6,0,0,0,0.5
2022-08-08T05:05:00+09:00,1.1,��쐼,2.5,���쐼,27.6,84.5,0,0,0,0.5
2022-08-08T05:06:00+09:00,1,��쐼,2.5,���쐼,27.6,84.6,0,0,0,0.5
2022-08-08T05:07:00+09:00,0.9,�쐼,2.5,���쐼,27.6,84.3,0,0,0,0.5
2022-08-08T05:08:00+09:00,1,�쐼,4.3,���쐼,27.5,84.3,0,0,0,0.5
2022-08-08T05:09:00+09:00,1.1,�쐼,4.3,���쐼,27.5,84.4,0,0,0,0.5
2022-08-08T05:10:00+09:00,1.4,�쐼,5.8,��,27.5,84.5,0,0,0,0.5
2022-08-08T05:11:00+09:00,1.7,�쐼,5.8,��,27.5,84.5,0,0,0,0.5
2022-08-08T05:12:00+09:00,1.7,�쐼,5.8,��,27.6,84.4,0,0,0,0.5
2022-08-08T05:13:00+09:00,1.7,�쐼,5.8,��,27.6,84.4,0,0,0,0.5
2022-08-08T05:14:00+09:00,1.8,���쐼,5.8,��,27.6,84.3,0,0,0,0.5
2022-08-08T05:15:00+09:00,2,���쐼,5.8,��,27.6,84.3,0,0,0,0.5
2022-08-08T05:16:00+09:00,2.2,���쐼,5.8,��,27.6,84.2,0,0,0,0.5
2022-08-08T05:17:00+09:00,2.3,���쐼,5.8,��,27.6,84.1,0,0,0,0.5
2022-08-08T05:18:00+09:00,2.4,���쐼,5.8,��,27.6,84.1,0,0,0,0.5
2022-08-08T05:19:00+09:00,2.6,�쐼,6.6,��,27.6,84.1,0,0,0,0.5
2022-08-08T05:20:00+09:00,2.5,�쐼,6.6,��,27.6,84.1,0,0,0,0.5
2022-08-08T05:21:00+09:00,2.3,��쐼,6.6,��,27.6,84,0,0,0,0.5
2022-08-08T05:22:00+09:00,2.3,�쐼,6.6,��,27.7,83.8,0,0,0,0.5
2022-08-08T05:23:00+09:00,2.3,��쐼,6.6,��,27.7,83.6,0,0,0,0.5
2022-08-08T05:24:00+09:00,2.3,��쐼,6.6,��,27.6,83.5,0,0,0,0.5
2022-08-08T05:25:00+09:00,2.2,��쐼,6.6,��,27.6,83.5,0,0,0,0.5
2022-08-08T05:26:00+09:00,2,��쐼,6.6,��,27.6,83.6,0,0,0,0.5
2022-08-08T05:27:00+09:00,1.9,��쐼,6.6,��,27.5,83.8,0,0,0,0.5
2022-08-08T05:28:00+09:00,1.7,��쐼,6.6,��,27.5,84,0,0,0,0.5
2022-08-08T05:29:00+09:00,1.6,��쐼,5.8,���쓌,27.5,84.1,0,0,0,0.5
2022-08-08T05:30:00+09:00,1.5,��쐼,4.6,��쐼,27.6,84.4,0,0,0,0.5
2022-08-08T05:31:00+09:00,1.4,��쐼,4.6,��쐼,27.9,84.7,0,0,0,0.5
2022-08-08T05:32:00+09:00,1.5,��쐼,4.6,��쐼,27.7,83.5,0,0,0,0.5
2022-08-08T05:33:00+09:00,1.5,��쐼,4.6,��쐼,27.7,83.2,0,0,0,0.5
2022-08-08T05:34:00+09:00,1.5,��쐼,4.6,��쐼,27.6,83.3,0,0,0,0.5
2022-08-08T05:35:00+09:00,1.5,��쐼,4.6,��쐼,27.6,83.4,0,0,0,0.5
2022-08-08T05:36:00+09:00,1.6,��쐼,4.6,��쐼,27.6,83.5,0,0,0,0.5
2022-08-08T05:37:00+09:00,1.7,��쐼,4.6,��쐼,27.6,83.6,0,0,0,0.5
2022-08-08T05:38:00+09:00,1.7,��쐼,4.6,��쐼,27.6,83.5,0,0,0,0.5
2022-08-08T05:39:00+09:00,1.6,��쐼,3.8,��,27.6,83.5,0,0,0,0.5
2022-08-08T05:40:00+09:00,1.5,��쐼,3.4,��,27.7,83.5,0,0,0,0.5
2022-08-08T05:41:00+09:00,1.7,��쐼,4.1,��,27.6,83.3,0,0,0,0.5
2022-08-08T05:42:00+09:00,1.7,��쐼,4.1,��,27.6,83.3,0,0,0,0.5
2022-08-08T05:43:00+09:00,1.7,��쐼,4.1,��,27.6,83.3,0,0,0,0.5
2022-08-08T05:44:00+09:00,1.8,��쐼,4.2,��,27.6,83.4,0,0,0,0.5
2022-08-08T05:45:00+09:00,1.9,��쐼,4.2,��,27.6,83.4,0,0,0,0.5
2022-08-08T05:46:00+09:00,2,��쐼,4.2,��,27.6,83.4,0,0,0,0.5
2022-08-08T05:47:00+09:00,2,��쐼,4.2,��,27.6,83.3,0,0,0,0.5
2022-08-08T05:48:00+09:00,2.1,��쐼,4.2,��,27.6,83.4,0,0,0,0.5
2022-08-08T05:49:00+09:00,2.2,��쐼,4.2,��,27.6,83.4,0,0,0,0.5
2022-08-08T05:50:00+09:00,2.3,��쐼,4.2,��,27.6,83.5,0,0,0,0.5
2022-08-08T05:51:00+09:00,2.3,��쐼,4.2,��,27.6,83.6,0,0,0,0.5
2022-08-08T05:52:00+09:00,2.3,��쐼,4.2,��,27.6,83.8,0,0,0,0.5
2022-08-08T05:53:00+09:00,2.3,��쐼,4.2,��,27.6,83.6,0,0,0,0.5
2022-08-08T05:54:00+09:00,2.4,��쐼,5.2,��쐼,27.6,83.5,0,0,0,0.5
2022-08-08T05:55:00+09:00,2.3,��쐼,5.2,��쐼,27.6,83.6,0,0,0,0.5
2022-08-08T05:56:00+09:00,2.3,��쐼,5.2,��쐼,27.7,83.7,0,0,0,0.5
2022-08-08T05:57:00+09:00,2.3,��쐼,5.2,��쐼,27.7,83.5,0,0,0,0.5
2022-08-08T05:58:00+09:00,2.2,��쐼,5.2,��쐼,27.7,83.2,0,0,0,0.5
2022-08-08T05:59:00+09:00,2.1,��쐼,5.2,��쐼,27.6,83.1,0,0,0,0.5
2022-08-08T06:00:00+09:00,2,��쐼,5.2,��쐼,27.6,83.3,0,0,0,0.5
2022-08-08T06:01:00+09:00,1.9,��쐼,5.2,��쐼,27.6,83.5,0,0,0,0.5
2022-08-08T06:02:00+09:00,2,��쐼,5.2,��쐼,27.6,83.5,0,0,0,0.5
2022-08-08T06:03:00+09:00,2.1,��쐼,5.2,��쐼,27.6,83.5,0,0,0,0.5
2022-08-08T06:04:00+09:00,2.2,�쐼,6.2,��쐼,27.6,83.4,0,0,0,0.5
2022-08-08T06:05:00+09:00,2.4,�쐼,6.2,��쐼,27.6,83.4,0,0,0,0.5
2022-08-08T06:06:00+09:00,2.6,�쐼,6.2,��쐼,27.6,83.3,0,0,0,0.5
2022-08-08T06:07:00+09:00,2.7,�쐼,6.2,��쐼,27.6,83.3,0,0,0,0.5
2022-08-08T06:08:00+09:00,2.9,�쐼,6.2,��쐼,27.6,83.3,0,0,0,0.5
2022-08-08T06:09:00+09:00,3,�쐼,6.2,��쐼,27.6,83.4,0,0,0,0.5
2022-08-08T06:10:00+09:00,3.1,�쐼,6.2,��쐼,27.6,83.4,0,0,0,0.5
2022-08-08T06:11:00+09:00,3.3,�쐼,6.2,��쐼,27.6,83.4,0,0,0,0.5
2022-08-08T06:12:00+09:00,3.4,�쐼,6.2,��쐼,27.6,83.3,0,0,0,0.5
2022-08-08T06:13:00+09:00,3.6,�쐼,6.2,��쐼,27.6,83.4,0,0,0,0.5
2022-08-08T06:14:00+09:00,3.5,�쐼,5.5,�쐼,27.6,83.4,0,0,0,0.5
2022-08-08T06:15:00+09:00,3.3,�쐼,5.5,�쐼,27.6,83.4,0,0,0,0.5
2022-08-08T06:16:00+09:00,3.3,�쐼,5.4,���쐼,27.6,83.3,0,0,0,0.5
2022-08-08T06:17:00+09:00,3.2,�쐼,5.4,���쐼,27.6,83.3,0,0,0,0.5
2022-08-08T06:18:00+09:00,3.1,�쐼,5.4,���쐼,27.6,83.3,0,0,0,0.5
2022-08-08T06:19:00+09:00,3.3,�쐼,5.4,���쐼,27.6,83.4,0,0,0,0.5
2022-08-08T06:20:00+09:00,3.4,�쐼,5.4,���쐼,27.6,83.4,0,0,0,0.5
2022-08-08T06:21:00+09:00,3.2,�쐼,5.4,���쐼,27.6,83.3,0,0,0,0.5
2022-08-08T06:22:00+09:00,3.1,�쐼,5.4,���쐼,27.6,83.2,0,0,0,0.5
2022-08-08T06:23:00+09:00,3,�쐼,5.2,��쐼,27.6,83.2,0,0,0,0.5
2022-08-08T06:24:00+09:00,3,�쐼,5.2,��쐼,27.7,83.3,0,0,0,0.5
2022-08-08T06:25:00+09:00,2.9,�쐼,5.2,��쐼,27.7,83.2,0,0,0,0.5
2022-08-08T06:26:00+09:00,2.7,�쐼,5.2,��쐼,27.7,83.2,0,0,0,0.5
2022-08-08T06:27:00+09:00,2.7,�쐼,5.2,��쐼,27.7,83.2,0,0,0,0.5
2022-08-08T06:28:00+09:00,2.6,�쐼,5.2,��쐼,27.7,83.1,0,0,0,0.5
2022-08-08T06:29:00+09:00,2.4,�쐼,5.2,��쐼,27.7,83.4,0,0,0,0.5